This is the latest recevied weather packets stored in our database for station/object N2XP-3. If no packets are shown the sender has not sent any weather packets the latest 10 day(s).
| Time | Temp. | Humidity | Pressure | Rain* | Wind** | Luminosity | Snow |
|---|---|---|---|---|---|---|---|
| 1777582547 | 15° C | 64% | 1005.1 hPa | 0 mm | 0.89 m/s, 6° | - | - |
| 1777582467 | 15.56° C | 63% | 1005.1 hPa | 0 mm | 3.13 m/s, 63° | - | - |
| 1777582241 | 15.56° C | 63% | 1005.1 hPa | 0 mm | 3.13 m/s, 63° | - | - |
| 1777582051 | 15.56° C | 64% | 1004.9 hPa | 0 mm | 0.45 m/s, 160° | - | - |
| 1777581941 | 15.56° C | 64% | 1004.9 hPa | 0 mm | 0.45 m/s, 160° | - | - |
| 1777581742 | 15.56° C | 64% | 1004.8 hPa | 0 mm | 0.45 m/s, 222° | - | - |
| 1777581641 | 15.56° C | 64% | 1004.8 hPa | 0 mm | 0.45 m/s, 222° | - | - |
| 1777581128 | 15.56° C | 65% | 1004.8 hPa | 0 mm | 0.89 m/s, 225° | - | - |
| 1777581031 | 15.56° C | 65% | 1004.8 hPa | 0 mm | 0.89 m/s, 225° | - | - |
| 1777580731 | 16.11° C | 64% | 1004.8 hPa | 0 mm | 1.34 m/s, 121° | - | - |
| 1777580523 | 15.56° C | 65% | 1004.8 hPa | 0 mm | 0.89 m/s, 293° | - | - |
| 1777580428 | 15.56° C | 65% | 1004.8 hPa | 0 mm | 0.89 m/s, 293° | - | - |
| 1777580301 | 15.56° C | 65% | 1004.7 hPa | 0 mm | 1.34 m/s, 205° | - | - |
| 1777580128 | 15.56° C | 65% | 1004.7 hPa | 0 mm | 1.34 m/s, 205° | - | - |
| 1777579283 | 15° C | 67% | 1004.4 hPa | 0 mm | 0.89 m/s, 160° | - | - |
| 1777579219 | 15° C | 67% | 1004.4 hPa | 0 mm | 0.89 m/s, 160° | - | - |
| 1777579035 | 15° C | 66% | 1004.4 hPa | 0 mm | 1.34 m/s, 259° | - | - |
| 1777578920 | 15° C | 66% | 1004.4 hPa | 0 mm | 1.34 m/s, 259° | - | - |
| 1777578614 | 15.56° C | 66% | 1004.3 hPa | 0 mm | 1.34 m/s, 44° | - | - |
| 1777578460 | 15.56° C | 65% | 1004.3 hPa | 0 mm | 1.79 m/s, 56° | - | - |
| 1777578312 | 15.56° C | 65% | 1004.3 hPa | 0 mm | 1.79 m/s, 56° | - | - |
| 1777578109 | 16.11° C | 65% | 1004.3 hPa | 0 mm | 0.89 m/s, 39° | - | - |
| 1777578013 | 16.11° C | 65% | 1004.3 hPa | 0 mm | 0.89 m/s, 39° | - | - |
| 1777577773 | 16.67° C | 67% | 1004.3 hPa | 0 mm | 1.34 m/s, 35° | - | - |
| 1777577709 | 16.67° C | 67% | 1004.3 hPa | 0 mm | 1.34 m/s, 35° | - | - |
* Rain latest hour (hover to see other rain measurements)
** Current wind speed in m/s (hover to see current wind gust speed)